Regional Weather Roundup
Issued by NWS Jackson, KY

Home | Current Version | Previous Version | Graphics & Text | Print | Product List | Glossary On
Versions: 1 2 3 4 5 6 7 8 9 10 11 12 13 14 15 16 17 18 19 20 21 22 23 24 25 26 27 28 29 30 31 32 33 34 35 36 37 38 39 40 41 42 43 44 45 46 47 48 49 50
000
ASUS43 KJKL 140310
RWRJKL

EAST KENTUCKY HOURLY WEATHER ROUNDUP
NATIONAL WEATHER SERVICE JACKSON KY
1000 PM EST SAT FEB 13 2016

NOTE: "FAIR" INDICATES FEW OR NO CLOUDS BELOW 12,000 FEET WITH
NO SIGNIFICANT WEATHER AND/OR OBSTRUCTIONS TO VISIBILITY.

* THESE REPORTS ARE NOT UNDER NWS QUALITY CONTROL AND MAY NOT
  REPORT WEATHER SUCH AS PRECIPITATION AND FOG.

KYZ079-080-083-085-087-088-110-112-115-119-120-140400
...EASTERN KENTUCKY...

CITY           SKY/WX    TMP DP  RH WIND       PRES   REMARKS
JACKSON        CLEAR     14   2  58 CALM      30.44F
LONDON         CLEAR     17   3  54 CALM      30.45S
SOMERSET*      CLEAR     18   5  57 NE3       30.47F
MONTICELLO*    CLEAR     16   8  71 W7        30.47F WCI   6
WILLIAMSBURG*  CLEAR     18   5  57 E3        30.45F
MIDDLESBORO*   CLEAR     18   8  65 CALM      30.45F
HARLAN APT*      N/A     18   3  53 CALM      30.41F
HAZARD APT*    CLEAR    -26 -35  62 CALM      30.45
BLACK MTN*       N/A      3   0  85 N5          N/A  WCI  -6
BIG SANDY*     CLEAR     13  -1  53 CALM      30.46S
MOREHEAD APT*  CLEAR     14   1  57 CALM      30.51R
$$

KYZ035-036-041-042-044-050-067-078-099-140400
...CENTRAL KENTUCKY...

CITY           SKY/WX    TMP DP  RH WIND       PRES   REMARKS
MT STERLING*   CLEAR     14   7  73 NE3       30.50R
DANVILLE*      CLEAR     16   9  73 CALM      30.48S
RICHMOND*      CLEAR     16   7  67 CALM      30.47R
LEXINGTON      CLEAR     15   3  59 NE8       30.48R WCI   4
FRANKFORT      CLOUDY    17   1  49 NE6       30.48S WCI   9
$$

KYZ091>093-OHZ055-061-077-WVZ005-015-034-035-042-140400
...SOUTHERN OHIO/WEST VIRGINIA...

CITY           SKY/WX    TMP DP  RH WIND       PRES   REMARKS
COVINGTON      CLOUDY    12   5  73 CALM      30.49S
COLUMBUS       CLOUDY     9  -1  64 W7        30.48S WCI  -2
DAYTON         CLOUDY     8   0  69 NW5       30.47F WCI   0
WILMINGTON     CLOUDY     4  -2  76 CALM      30.47F
HUNTINGTON       N/A     13  -2  51 E3        30.50S
CHARLESTON       N/A     12  -4  48 CALM      30.49S
PINEVILLE*       N/A      1  -4  80 MISG      30.45F
BECKLEY          N/A      4  -6  63 NW6       30.33R WCI  -7
$$

VAZ002-007-008-TNZ017-027-036-066-071-140400
...SOUTHWEST VIRGINIA/EAST TENNESSEE...

CITY           SKY/WX    TMP DP  RH WIND       PRES   REMARKS
BRISTOL        CLEAR     16   3  56 CALM      30.41F
KNOXVILLE      CLEAR     22   5  48 NE9       30.43F WCI  12
OAK RIDGE      CLEAR     24   3  40 NE5       30.46F WCI  18
CROSSVILLE     CLEAR     20   4  50 NE6       30.37F WCI  12
NASHVILLE      CLOUDY    27   4  37 NE8       30.46F WCI  19
$$

...KEY TO REMARKS...
VSB - VISIBILITY IN MILES
WCI - WIND CHILL INDEX
HX  - HEAT INDEX

$$



USA.gov is the U.S. government's official web portal to all federal, state and local government web resources and services.